CW1663 Weather Reports


Display with metric or nautical units.
time (UTC)temp
F
wind
direction
speed
MPH
gust
MPH
rain 1hr
in
rain 24hr
in
rain mn
in
humidity
%
barometer
mb
20260902184804 62 222 5.0 12.0 0.00 0.02 0.01 95 1017.8
20260902183804 61 210 3.0 8.0 0.00 0.02 0.01 94 1017.7
20260902180804 61 204 4.0 12.0 0.00 0.02 0.01 93 1017.8
20260902175307 62 218 5.0 10.0 0.00 0.02 0.01 92 1018.0
20260902174804 61 205 4.0 10.0 0.00 0.02 0.01 92 1018.0
20260902174304 61 206 6.0 15.0 0.00 0.02 0.01 91 1018.1
20260902173803 61 183 3.0 8.0 0.00 0.02 0.01 91 1018.1
20260902173304 61 192 4.0 10.0 0.00 0.02 0.01 90 1018.2
20260902172804 62 207 4.0 8.0 0.00 0.02 0.01 90 1018.2
20260902172308 62 142 3.0 12.0 0.00 0.02 0.01 89 1018.2
20260902171804 62 222 3.0 12.0 0.00 0.02 0.01 89 1018.2
20260902170804 62 226 4.0 12.0 0.00 0.02 0.01 88 1018.3
20260902170304 62 189 5.0 13.0 0.00 0.02 0.01 87 1018.5
20260902165803 62 224 6.0 14.0 0.00 0.02 0.01 87 1018.5
20260902165308 63 253 7.0 14.0 0.00 0.02 0.01 86 1018.6
20260902164304 63 202 5.0 14.0 0.00 0.02 0.01 84 1018.6
20260902162307 64 201 9.0 20.0 0.00 0.02 0.01 81 1018.5
20260902160804 64 222 6.0 14.0 0.00 0.02 0.01 80 1018.8
20260902160304 64 213 6.0 14.0 0.00 0.02 0.01 79 1019.0
20260902155306 64 193 6.0 16.0 0.00 0.02 0.01 77 1018.9
20260902154304 65 211 7.0 17.0 0.00 0.02 0.01 75 1018.8
20260902153804 65 203 7.0 20.0 0.00 0.02 0.01 75 1018.8
20260902152307 66 206 5.0 16.0 0.00 0.02 0.01 73 1018.9
20260902151304 67 217 8.0 14.0 0.00 0.02 0.01 72 1018.8
20260902150304 66 204 8.0 21.0 0.00 0.02 0.01 74 1019.1
20260902145306 66 211 9.0 17.0 0.00 0.02 0.01 74 1019.2
20260902143803 66 231 7.0 16.0 0.00 0.02 0.01 75 1019.1
20260902143304 66 211 8.0 23.0 0.00 0.02 0.01 76 1019.3
20260902142804 66 191 6.0 17.0 0.00 0.02 0.01 78 1019.3
20260902140303 64 218 7.0 16.0 0.00 0.02 0.01 81 1019.4
20260902135804 64 224 7.0 14.0 0.00 0.02 0.01 82 1019.4
20260902135306 64 220 8.0 20.0 0.00 0.02 0.01 82 1019.5
20260902134304 64 196 5.0 13.0 0.00 0.02 0.01 82 1019.5
20260902132804 63 221 6.0 17.0 0.00 0.02 0.01 83 1019.7
20260902131304 63 235 8.0 16.0 0.00 0.02 0.01 83 1019.7
20260902130804 64 212 6.0 14.0 0.00 0.02 0.01 83 1019.7
20260902130304 64 197 6.0 15.0 0.00 0.02 0.01 83 1019.8
20260902125803 64 214 7.0 17.0 0.00 0.02 0.01 83 1019.8
20260902124804 64 211 7.0 16.0 0.00 0.02 0.01 83 1019.8
20260902124303 64 217 7.0 14.0 0.00 0.02 0.01 84 1019.9
20260902123304 64 226 6.0 12.0 0.00 0.02 0.01 85 1020.0
20260902122804 64 227 8.0 16.0 0.00 0.02 0.01 85 1020.0
20260902122305 64 226 3.0 13.0 0.00 0.02 0.01 86 1019.9
20260902121304 64 215 6.0 14.0 0.01 0.02 0.01 87 1019.9
20260902120304 64 220 3.0 12.0 0.01 0.02 0.01 87 1019.9
20260902115803 64 237 6.0 12.0 0.01 0.02 0.01 87 1019.9
20260902115307 64 219 6.0 15.0 0.01 0.02 0.01 88 1019.9
20260902114304 64 208 6.0 15.0 0.01 0.02 0.01 90 1020.0
20260902113304 63 222 6.0 20.0 0.01 0.02 0.01 92 1020.0
20260902112803 63 168 5.0 12.0 0.01 0.02 0.01 93 1020.0
20260902110304 63 231 3.0 9.0 0.00 0.01 0.00 94 1020.3
20260902104804 62 225 3.0 8.0 0.00 0.01 0.00 93 1020.3
20260902103303 62 226 3.0 6.0 0.00 0.01 0.00 92 1020.4
20260902102803 62 205 2.0 6.0 0.00 0.01 0.00 91 1020.4
20260902101804 62 202 4.0 9.0 0.00 0.01 0.00 90 1020.4
20260902100304 63 212 2.0 6.0 0.00 0.01 0.00 89 1020.5
20260902095306 63 228 3.0 6.0 0.00 0.01 0.00 89 1020.5
20260902094804 63 219 3.0 8.0 0.00 0.01 0.00 88 1020.5
20260902094303 63 225 4.0 9.0 0.00 0.01 0.00 87 1020.5
20260902093804 64 215 4.0 8.0 0.00 0.01 0.00 86 1020.5
20260902092804 64 197 2.0 9.0 0.00 0.01 0.00 86 1020.5
20260902092305 64 230 3.0 8.0 0.00 0.01 0.00 86 1020.5
20260902091804 64 227 4.0 7.0 0.00 0.01 0.00 86 1020.5
20260902090304 64 232 2.0 9.0 0.00 0.01 0.00 87 1020.3
20260902085306 63 169 3.0 8.0 0.00 0.01 0.00 88 1020.4
20260902084804 63 233 5.0 9.0 0.00 0.01 0.00 88 1020.4
20260902084304 63 219 5.0 7.0 0.00 0.01 0.00 88 1020.4
20260902083804 63 216 3.0 7.0 0.00 0.01 0.00 89 1020.4
20260902083304 63 218 4.0 7.0 0.00 0.01 0.00 90 1020.3
20260902082309 62 234 3.0 6.0 0.00 0.01 0.00 91 1020.2
20260902080837 61 225 3.0 7.0 0.00 0.01 0.00 92 1020.2
20260902080320 61 213 3.0 6.0 0.00 0.01 0.00 92 1019.9
20260902075306 61 217 2.0 7.0 0.00 0.01 0.00 93 1019.9
20260902074803 61 230 2.0 8.0 0.00 0.01 0.00 93 1019.9
20260902073804 60 246 3.0 6.0 0.00 0.01 0.00 93 1020.0
20260902072309 59 222 2.0 3.0 0.00 0.01 0.00 93 1019.9
20260902070804 59 202 0.0 1.0 0.00 0.01 0.00 93 1019.8
20260902070304 59 201 1.0 3.0 0.00 0.01 0.00 93 1019.7
20260902065306 59 201 1.0 3.0 0.00 0.01 0.00 93 1019.7
20260902064303 59 200 1.0 3.0 0.00 0.01 0.00 93 1019.7
20260902063303 58 215 2.0 3.0 0.00 0.01 0.00 93 1019.7
20260902062306 58 213 1.0 3.0 0.00 0.01 0.00 92 1019.6
20260902061804 58 213 1.0 2.0 0.00 0.01 0.00 92 1019.6
20260902061304 58 213 0.0 2.0 0.00 0.01 0.00 92 1019.7
20260902055804 58 211 1.0 2.0 0.00 0.01 0.00 92 1019.5
20260902055307 59 212 1.0 3.0 0.00 0.01 0.00 92 1019.5
20260902054804 59 215 0.0 2.0 0.00 0.01 0.00 92 1019.5
20260902054304 59 216 1.0 3.0 0.00 0.01 0.00 92 1019.4
20260902053804 59 214 1.0 5.0 0.00 0.01 0.00 92 1019.4
20260902053304 59 238 2.0 6.0 0.00 0.01 0.00 92 1019.5
20260902052804 59 259 3.0 7.0 0.00 0.01 0.00 92 1019.5
20260902051304 58 249 2.0 3.0 0.00 0.01 0.00 92 1019.4
20260902050303 58 236 2.0 3.0 0.00 0.01 0.00 92 1019.5
20260902045306 58 240 2.0 5.0 0.00 0.02 0.00 92 1019.6
20260902044304 58 246 1.0 3.0 0.00 0.02 0.00 92 1019.7
20260902043804 58 249 2.0 5.0 0.00 0.02 0.00 92 1019.7
20260902041304 58 245 1.0 3.0 0.00 0.02 0.00 93 1019.5
20260902035804 58 245 1.0 3.0 0.00 0.02 0.00 92 1019.6
20260902035305 58 249 2.0 3.0 0.00 0.02 0.00 92 1019.6
20260902034804 58 249 2.0 3.0 0.00 0.02 0.00 92 1019.6
20260902033803 58 236 1.0 3.0 0.00 0.02 0.00 92 1019.7
20260902032306 59 240 3.0 5.0 0.00 0.02 0.00 92 1019.7
20260902031803 59 234 2.0 3.0 0.00 0.02 0.00 92 1019.7
20260902031304 59 232 2.0 5.0 0.00 0.02 0.00 92 1019.7
20260902025803 59 246 2.0 3.0 0.00 0.02 0.00 92 1019.7
20260902024304 59 223 2.0 5.0 0.00 0.02 0.00 91 1019.8
20260902023804 59 234 3.0 7.0 0.00 0.02 0.00 91 1019.8
20260902023303 59 233 2.0 5.0 0.00 0.02 0.00 91 1019.8
20260902022306 59 244 2.0 3.0 0.00 0.02 0.00 91 1019.8
20260902021804 59 233 2.0 3.0 0.00 0.02 0.00 91 1019.8
20260902021304 59 234 2.0 5.0 0.00 0.02 0.00 90 1019.9
20260902020803 59 221 3.0 5.0 0.00 0.02 0.00 90 1019.9
20260902020304 59 240 2.0 5.0 0.00 0.02 0.00 90 1019.9
20260902015803 59 238 3.0 5.0 0.00 0.02 0.00 90 1019.9
20260902013804 59 245 3.0 7.0 0.00 0.02 0.00 90 1020.0
20260902012308 59 230 3.0 5.0 0.00 0.02 0.00 89 1020.1
20260902011303 59 254 2.0 5.0 0.00 0.02 0.00 89 1020.0
20260902010803 59 238 3.0 5.0 0.00 0.02 0.00 89 1020.0
20260902005306 59 262 2.0 3.0 0.00 0.02 0.00 89 1020.0
20260902004303 59 244 2.0 6.0 0.00 0.02 0.00 88 1020.1
20260902003304 59 239 2.0 3.0 0.00 0.02 0.00 88 1019.9
20260902002804 59 241 2.0 3.0 0.00 0.02 0.00 88 1019.9
20260902001304 59 246 2.0 3.0 0.00 0.02 0.00 88 1020.4
20260902000803 59 236 2.0 6.0 0.00 0.02 0.00 88 1020.4
20260902000304 59 249 3.0 6.0 0.00 0.02 0.00 88 1020.3
20260901235804 59 244 3.0 7.0 0.00 0.02 0.00 88 1020.3
20260901235307 59 236 3.0 8.0 0.00 0.02 0.00 88 1020.3
20260901233803 60 261 3.0 6.0 0.00 0.02 0.00 87 1020.2
20260901233304 60 245 2.0 3.0 0.00 0.02 0.00 87 1020.2
20260901232306 60 240 3.0 5.0 0.00 0.02 0.00 87 1020.2
20260901230303 59 253 4.0 9.0 0.00 0.02 0.00 87 1020.3
20260901224804 59 253 2.0 5.0 0.01 0.02 0.02 87 1020.3
20260901224304 59 253 3.0 5.0 0.01 0.02 0.02 87 1020.4
20260901223803 59 244 3.0 6.0 0.01 0.02 0.02 87 1020.4
20260901222803 59 245 2.0 5.0 0.01 0.02 0.02 88 1020.3
20260901222306 59 244 2.0 3.0 0.01 0.02 0.02 87 1020.4
20260901221804 59 244 2.0 5.0 0.01 0.02 0.02 87 1020.4
20260901220303 59 248 2.0 3.0 0.01 0.02 0.02 87 1020.6
20260901214806 59 238 2.0 3.0 0.00 0.01 0.01 87 1020.5
20260901212804 59 232 2.0 3.0 0.00 0.01 0.01 87 1020.5
20260901212306 59 233 1.0 5.0 0.00 0.01 0.01 87 1020.6
20260901211804 59 235 2.0 5.0 0.00 0.01 0.01 87 1020.6
20260901211304 59 228 2.0 3.0 0.00 0.01 0.01 87 1020.5
20260901210303 59 235 2.0 3.0 0.00 0.01 0.01 87 1020.6
20260901205803 59 236 2.0 3.0 0.00 0.01 0.01 87 1020.6
20260901205306 59 236 2.0 5.0 0.00 0.01 0.01 87 1020.6
20260901204804 59 236 2.0 3.0 0.00 0.02 0.01 87 1020.6
20260901203804 59 232 2.0 3.0 0.00 0.02 0.01 87 1020.5
20260901203303 59 230 2.0 5.0 0.00 0.02 0.01 86 1020.5
20260901201803 59 215 2.0 3.0 0.00 0.02 0.01 86 1020.6
20260901200304 60 215 0.0 1.0 0.00 0.02 0.01 84 1020.5
20260901195803 60 215 0.0 2.0 0.00 0.02 0.01 84 1020.5
20260901194804 60 215 0.0 3.0 0.00 0.02 0.01 84 1020.5
20260901193805 61 215 1.0 3.0 0.00 0.02 0.01 83 1020.5
20260901191805 61 203 1.0 3.0 0.00 0.02 0.01 82 1020.3
20260901185805 62 183 2.0 3.0 0.00 0.02 0.01 80 1020.1